Temperature
22 21 21 20 20 21 22 24 25 25 25 25 25 24 23 22 22 20 20 20 21 21 20 20 20 20 19 19 19 19 19 19 19 19 19 19 19 19 19 19 19 19 19 19 19 19 19 19 19
22 21 21 20 20 21 23 25 25 25 25 25 24 24 23 22 21 20 20 20 21 21 20 20 20 20 19 19 19 19 19 19 19 19 19 19 19 19 19 19 19 19 19 19 19 19 19 19 19
22 21 21 20 21 22 24 25 26 26 26 26 25 24 23 22 21 21 21 21 21 21 20 20 20 20 20 20 19 19 19 19 19 19 19 19 19 19 19 19 19 19 19 19 19 19 19 19 19
22 21 21 21 23 24 25 26 26 26 26 25 24 23 23 22 22 22 21 21 21 21 21 21 20 20 20 20 20 19 19 19 19 19 19 19 19 19 19 19 19 19 19 19 19 19 19 19 19
22 21 21 22 24 25 26 27 27 26 25 24 24 22 22 22 22 22 21 21 21 21 21 21 20 20 20 20 20 20 19 19 19 19 19 19 19 19 19 19 19 19 19 19 19 19 19 19 19
22 21 21 22 25 26 27 27 27 25 25 24 23 22 22 22 22 21 21 21 21 21 21 21 21 20 20 20 20 20 19 19 19 19 19 19 19 19 19 19 19 19 19 19 19 19 19 19 19
22 21 22 24 25 26 27 27 26 25 25 24 24 22 22 22 22 22 21 21 21 21 21 21 21 20 20 20 20 20 19 19 19 19 19 19 19 19 19 19 19 19 19 19 19 19 19 19 19
24 22 23 24 25 26 27 28 27 26 25 25 24 22 22 22 22 22 21 21 21 21 21 21 21 20 20 20 20 20 19 19 19 19 19 19 19 19 19 19 19 19 19 19 19 19 19 19 19
25 22 23 24 25 26 27 27 27 26 25 25 25 24 23 22 22 21 21 21 21 21 21 21 21 20 20 20 20 20 19 19 19 19 19 19 19 19 19 19 19 19 19 19 19 19 19 19 19
24 22 24 26 26 26 27 27 27 26 25 24 24 24 23 22 22 22 21 21 21 21 21 21 21 20 20 20 20 19 19 19 19 19 19 19 19 19 19 19 19 19 19 19 19 19 19 19 19
25 24 26 28 28 28 27 27 27 25 24 24 24 23 23 23 22 22 22 22 21 21 21 21 21 20 20 20 20 19 19 19 19 19 19 19 19 19 19 19 19 19 19 19 19 19 19 19 19
26 27 28 28 29 29 28 27 27 26 25 25 25 24 23 23 22 22 22 22 21 21 21 21 21 21 20 20 20 20 19 19 19 19 19 19 19 19 19 19 19 19 19 19 19 19 19 19 19
27 28 29 29 29 29 28 27 27 26 26 25 24 24 23 23 23 23 22 22 22 21 21 21 21 21 20 20 20 20 19 19 19 19 19 19 19 19 19 19 19 19 19 19 19 19 19 19 19
28 28 28 29 29 29 27 27 26 26 25 25 24 24 24 23 23 23 22 22 22 21 21 21 21 21 20 20 20 20 20 19 19 19 19 19 19 19 19 19 19 19 19 19 19 19 19 19 19
29 27 27 28 28 28 27 26 26 26 25 25 24 24 24 24 23 23 23 22 22 22 21 21 21 21 20 20 20 20 20 20 20 20 20 19 19 19 19 19 19 19 19 19 19 19 19 19 19
27 26 26 27 28 28 26 24 26 26 25 24 24 24 24 24 23 23 23 23 22 22 22 21 21 21 21 20 20 20 20 20 20 20 20 20 19 19 19 19 19 19 19 19 19 19 19 19 19
25 25 26 27 28 28 26 25 25 26 25 25 24 24 24 24 24 23 23 23 23 22 22 22 21 21 21 20 20 20 20 20 20 20 20 20 19 19 19 19 19 19 19 19 19 19 19 19 19
25 26 27 27 28 28 26 25 25 26 25 25 24 24 24 24 23 23 23 23 23 22 22 22 21 21 21 21 20 20 20 20 20 20 20 20 19 19 19 19 19 19 19 19 19 19 19 19 19
27 27 27 27 28 27 26 25 25 25 25 24 24 24 24 24 24 23 23 23 23 23 22 22 21 21 21 21 20 20 20 20 20 20 20 20 19 19 19 19 19 19 19 19 19 19 19 19 19
28 27 27 28 29 27 25 25 25 25 25 25 24 24 24 24 24 23 23 23 23 23 22 22 22 21 21 21 21 21 20 20 20 20 20 19 19 19 19 19 19 19 19 19 19 19 19 19 19
28 27 27 28 28 27 26 24 24 25 25 25 24 24 24 24 23 23 23 23 23 23 23 22 22 21 21 21 21 20 20 20 20 20 20 19 19 19 19 19 19 19 19 19 19 19 19 18 18
28 29 29 28 26 24 25 23 23 23 23 24 23 23 23 24 24 24 23 23 23 23 23 22 22 21 21 21 21 20 20 20 20 20 20 19 19 19 19 19 19 19 19 19 19 19 18 18 18
29 30 29 28 25 23 24 23 22 23 23 23 23 23 23 24 24 24 23 23 23 23 22 22 22 21 21 21 21 20 20 20 20 19 19 19 19 19 19 19 19 19 19 19 19 19 18 18 18
30 28 27 24 23 23 23 23 22 22 22 23 23 23 23 23 23 23 23 23 23 22 22 22 22 21 21 21 20 20 20 20 20 19 19 19 19 19 19 19 19 19 19 19 19 18 18 18 18
28 25 24 24 22 22 23 23 22 23 24 24 23 23 23 23 23 23 23 23 23 22 22 22 22 21 21 21 20 20 20 20 20 19 19 19 19 19 19 18 19 19 18 18 18 18 18 18 18
28 25 24 24 23 22 23 23 23 24 24 24 24 23 23 23 23 23 23 23 22 22 22 22 22 21 21 20 20 20 20 19 19 19 19 19 19 19 18 18 18 18 18 18 18 18 18 18 17
28 26 24 23 23 22 22 23 23 23 23 23 23 23 23 23 23 23 23 23 22 22 22 22 22 21 20 20 20 20 20 19 19 19 19 18 18 18 18 18 18 18 18 18 18 18 18 18 17
28 26 23 23 23 23 23 23 22 23 22 23 22 22 23 23 23 23 23 22 22 22 22 22 21 21 20 20 20 19 19 19 19 19 18 18 18 18 18 18 18 18 18 18 18 18 17 17 17
27 26 23 21 22 22 22 22 24 23 23 23 22 23 23 23 23 22 22 22 22 21 21 21 21 21 20 20 20 19 19 19 19 19 18 18 18 18 18 18 18 18 18 17 17 17 17 17 17
27 26 24 23 23 21 21 22 25 23 23 23 23 23 23 23 22 22 22 22 22 21 21 21 21 20 20 20 20 19 19 19 19 19 18 18 18 18 18 17 17 17 17 17 17 17 17 17 16
Wind_Speed
9 6 3 1 1 2 1 1 4 6 5 6 9 10 9 7 5 6 4 11 13 11 10 12 13 13 13 13 13 13 13 13 13 12 12 12 12 12 12 11 11 11 10 10 9 9 9 9 8
6 4 1 1 2 2 1 3 7 7 8 10 11 11 9 7 7 9 7 12 13 12 11 12 14 14 13 13 12 12 12 12 12 11 11 11 11 11 11 11 10 10 10 9 8 8 8 8 8
5 3 0 1 1 2 2 4 8 8 8 8 6 6 6 6 8 7 8 14 12 10 10 12 14 14 13 13 12 12 12 12 11 11 10 10 10 10 10 10 10 9 9 8 8 8 7 7 7
2 1 1 1 1 1 4 5 9 11 8 8 8 7 5 5 6 9 15 14 12 9 10 12 15 14 14 13 12 12 11 11 10 10 9 9 9 9 10 10 10 9 8 8 7 7 7 6 6
1 1 2 2 1 2 4 7 10 10 6 8 10 8 5 4 12 16 16 14 12 9 9 12 15 14 13 12 12 11 11 10 10 9 9 9 9 9 9 9 9 9 8 8 7 7 7 6 6
1 2 2 1 2 2 4 7 11 12 11 10 10 7 4 6 13 13 14 12 11 11 9 11 14 14 13 12 11 11 10 10 9 9 9 8 8 8 9 9 9 8 8 8 7 7 7 7 6
2 1 1 2 3 3 3 6 9 10 9 6 8 7 4 5 10 12 12 11 10 10 9 8 10 12 12 12 11 10 9 9 8 8 8 7 7 8 8 8 8 8 8 8 8 7 7 7 7
3 1 1 1 4 3 4 6 7 10 8 9 7 7 6 7 11 11 11 10 9 8 7 6 8 9 9 10 11 10 9 9 8 8 7 7 7 7 8 8 8 9 9 9 9 8 8 8 8
3 2 2 4 5 4 5 7 5 7 9 6 5 7 9 13 12 11 10 8 7 7 6 6 6 7 8 9 9 9 9 8 7 7 6 6 4 5 6 8 9 9 9 9 9 9 9 9 9
5 4 6 5 6 6 5 7 5 7 9 8 8 9 12 13 13 12 11 10 8 8 7 6 6 6 7 7 8 7 7 6 6 5 4 4 4 4 5 7 9 9 10 10 10 10 10 9 7
6 6 4 4 6 7 6 5 5 10 7 10 13 13 12 12 11 11 10 10 9 9 8 7 7 6 6 4 6 6 5 4 4 4 4 4 3 3 4 4 5 6 7 7 8 8 7 6 5
3 5 4 3 4 6 7 6 6 7 8 11 14 13 12 12 11 10 9 9 9 9 8 7 7 5 5 5 5 5 4 4 3 4 5 4 2 2 2 2 4 4 4 4 5 4 5 5 6
2 1 0 3 4 7 9 8 7 8 12 12 13 12 12 11 9 8 9 9 9 8 8 8 7 6 4 4 4 5 4 5 5 4 5 5 3 2 2 2 2 3 4 3 3 3 4 4 5
2 1 1 2 4 7 10 7 6 8 12 13 13 11 11 11 10 8 9 9 9 8 8 7 7 6 5 4 4 4 4 5 5 4 5 5 4 3 2 2 2 2 3 3 3 3 3 3 3
1 3 3 1 3 5 10 5 5 9 11 12 12 10 10 10 10 10 10 9 9 9 8 8 7 6 6 5 5 4 4 5 4 4 4 5 4 3 2 2 2 2 3 2 2 2 2 2 2
3 3 1 3 2 4 8 4 5 9 12 10 9 9 8 7 9 9 10 9 8 8 8 8 7 6 5 5 4 3 4 4 3 3 4 4 4 3 2 2 2 2 2 1 1 1 1 1 2
3 1 3 4 1 3 5 5 5 7 11 10 9 8 8 8 7 8 9 9 9 8 8 7 6 6 5 4 3 3 3 2 2 3 3 3 4 3 2 2 2 2 0 0 1 1 1 2 2
3 2 3 4 2 3 5 5 6 7 8 9 8 7 7 9 9 8 9 9 8 7 7 6 6 5 4 4 3 2 2 1 1 2 2 3 2 2 2 1 1 1 0 0 0 1 1 1 2
4 2 4 5 2 4 6 6 7 6 6 7 6 7 7 7 8 8 8 9 8 7 7 6 6 4 4 3 3 2 1 1 1 1 2 2 2 2 2 1 0 1 1 1 1 1 1 1 1
2 1 3 3 2 4 5 3 5 6 7 9 9 8 8 7 7 8 8 8 7 8 7 7 6 5 4 3 3 2 2 1 1 1 1 1 1 2 2 1 1 0 1 0 0 0 0 1 0
3 4 4 3 1 4 6 2 1 1 3 5 6 6 6 9 10 9 8 7 7 7 8 8 6 5 5 4 3 2 2 1 1 0 0 1 1 1 1 2 1 1 1 1 1 0 1 1 1
6 6 5 3 3 1 3 1 5 3 1 3 4 4 5 7 9 9 9 8 9 8 7 6 6 5 5 5 5 5 3 2 2 2 1 1 0 1 1 1 1 1 0 0 1 0 1 1 2
7 5 3 3 4 2 2 3 5 2 3 4 4 5 6 7 9 9 9 9 8 8 7 6 6 5 4 4 5 4 3 2 1 1 1 1 1 1 0 1 1 0 0 1 1 0 0 1 2
2 4 5 5 5 2 4 2 4 4 8 6 6 6 7 8 9 8 8 7 6 6 6 6 5 4 3 4 4 4 4 3 2 1 1 0 1 1 1 1 1 0 0 1 1 1 0 1 1
3 5 4 5 4 4 3 1 6 7 6 8 9 8 7 8 9 8 7 8 7 7 7 6 6 4 3 4 4 4 4 4 3 3 2 1 0 1 2 1 1 1 1 1 0 0 1 1 0
3 8 7 4 4 4 3 3 5 5 5 6 6 7 7 9 9 9 9 9 8 9 8 7 7 5 5 5 4 4 4 3 2 3 2 2 2 2 2 1 1 1 1 1 0 0 1 1 1
2 2 8 7 2 1 3 4 5 1 2 3 5 5 7 9 9 8 8 8 7 8 9 9 8 6 6 5 4 4 3 3 3 2 2 1 1 1 1 1 1 1 1 1 0 1 1 1 1
4 4 5 5 3 1 3 3 4 4 6 5 4 5 7 8 9 7 6 6 6 6 7 7 7 7 5 5 4 4 3 3 3 2 1 1 2 1 1 1 1 1 1 1 1 1 1 1 2
3 3 4 4 5 5 3 6 6 10 9 8 6 6 7 8 9 8 7 6 6 5 6 6 6 5 5 5 4 3 2 2 1 2 2 2 1 1 1 1 1 1 1 1 0 1 1 1 2
2 3 5 3 3 4 4 6 3 8 8 8 7 6 7 8 7 7 8 7 6 6 5 6 6 6 6 6 5 4 3 3 2 2 2 1 1 1 1 1 1 1 1 1 1 2 1 1 1
Wind_Direction
191 179 167 222 2 39 62 144 103 82 65 70 80 86 81 69 100 131 153 145 141 145 144 138 133 131 128 126 124 122 121 120 121 122 125 126 129 131 134 136 138 140 142 145 145 148 151 149 149
177 176 183 9 50 48 1 117 98 100 121 107 86 85 79 73 89 117 132 145 142 143 142 139 136 133 131 130 129 127 127 126 125 125 127 130 132 135 138 141 142 143 146 148 151 152 156 159 160
184 205 208 33 44 144 121 101 105 103 104 97 90 67 74 106 114 135 147 144 140 139 141 143 138 136 134 133 133 133 132 131 130 129 129 134 138 142 144 145 146 148 150 153 154 154 158 165 170
164 123 17 39 324 215 143 129 112 104 85 75 93 73 60 106 130 137 138 138 136 140 143 146 141 139 137 138 139 140 138 137 136 134 134 138 144 148 151 152 153 154 155 157 161 163 166 169 176
113 83 35 25 47 65 110 121 116 107 93 89 90 94 77 74 120 132 138 139 137 141 147 148 145 143 142 142 144 146 146 144 143 143 143 147 152 155 158 160 161 164 164 168 171 174 178 183 191
73 78 55 58 85 87 95 112 104 100 107 107 101 104 102 122 127 138 139 140 141 143 148 148 148 149 148 146 147 147 148 150 151 151 154 157 161 164 166 168 169 172 175 181 184 187 193 201 210
144 94 248 161 105 93 117 112 107 118 119 121 123 108 128 135 139 136 134 136 140 142 144 146 148 151 150 147 147 147 150 152 156 158 161 165 167 173 175 177 180 185 190 195 201 206 212 217 224
174 118 298 162 127 119 119 101 116 121 112 127 121 126 155 159 141 131 127 129 134 139 145 149 151 150 153 155 154 153 151 152 156 162 168 174 178 182 186 189 194 200 206 209 215 220 227 233 238
159 115 224 194 155 155 124 104 92 99 108 111 104 132 149 142 134 124 123 122 133 141 151 152 152 158 162 165 164 163 162 165 167 172 178 181 192 196 199 205 208 214 219 222 224 227 232 240 246
160 167 213 205 168 151 138 127 133 109 103 100 103 115 126 134 137 138 142 146 150 156 164 161 161 167 171 174 165 170 172 177 180 181 184 187 193 200 206 214 220 225 227 230 231 233 235 240 244
166 185 206 194 169 148 139 124 114 120 124 144 143 143 139 138 141 145 150 153 159 164 164 164 166 171 174 171 162 169 173 175 183 186 184 186 192 207 216 220 233 235 231 235 240 245 240 235 232
163 205 185 185 170 140 139 133 116 130 155 157 150 149 146 147 153 157 155 155 153 156 166 165 169 165 171 165 163 166 169 176 190 201 191 180 180 200 212 216 227 232 236 235 236 238 241 238 238
163 198 167 162 131 127 121 123 125 136 147 150 149 148 152 154 158 159 156 152 151 156 162 165 161 161 162 152 161 159 170 183 190 190 193 184 176 189 199 215 223 226 226 223 224 234 239 243 240
232 176 120 141 123 128 123 120 114 147 149 148 152 158 161 159 160 156 153 152 155 159 162 164 156 160 151 147 152 150 168 173 177 185 192 190 188 188 193 211 225 233 228 226 216 224 229 232 232
3 44 8 130 129 139 113 90 144 158 147 151 159 163 164 162 159 162 164 160 159 158 154 158 159 154 150 145 151 151 163 164 168 186 192 190 188 187 191 207 230 240 236 232 222 231 233 237 244
18 43 352 276 133 155 118 161 188 160 143 148 159 159 155 160 160 161 161 158 158 153 153 164 161 152 152 151 151 152 156 161 175 187 190 196 198 194 187 196 234 247 244 230 209 204 235 259 259
19 0 279 290 179 148 119 165 178 168 149 151 154 154 150 154 158 159 158 157 153 150 150 154 150 155 156 154 148 139 140 148 166 175 188 202 201 195 184 200 231 238 233 229 232 196 202 244 274
257 267 268 256 245 133 123 147 160 167 153 161 162 159 151 157 172 167 160 155 152 149 144 143 141 146 144 138 121 107 100 127 158 171 189 187 193 191 178 194 238 230 166 315 261 234 246 240 261
216 240 258 246 204 134 147 150 171 175 160 163 169 164 163 169 168 155 153 154 147 143 143 146 146 150 138 133 138 138 167 191 198 203 192 194 198 188 171 174 224 228 183 218 227 204 268 284 292
237 260 269 269 178 130 120 141 181 166 171 175 176 172 167 161 158 158 154 156 158 157 156 153 155 152 153 160 160 154 160 185 178 193 185 206 198 197 177 164 198 199 151 357 358 119 254 306 75
256 220 220 209 41 68 106 57 259 199 164 169 171 174 161 165 163 163 163 168 163 167 167 165 163 155 156 155 131 115 82 36 46 54 253 243 211 194 177 158 153 136 151 226 270 174 163 259 294
262 241 202 167 99 357 111 172 269 247 212 163 164 167 170 169 163 166 169 169 172 177 169 156 156 153 153 150 143 143 148 171 208 207 214 246 222 176 167 152 149 153 155 219 263 169 206 191 263
243 249 179 146 114 67 14 123 278 241 233 220 195 186 183 173 165 167 170 168 167 164 157 153 149 150 155 153 156 154 164 189 196 163 177 229 271 258 189 137 132 183 208 245 286 311 224 187 208
257 35 37 56 70 28 271 153 266 236 218 209 201 194 184 171 162 162 163 155 149 147 145 144 145 155 166 157 156 159 168 171 151 152 165 225 262 290 292 178 183 212 239 282 270 269 249 210 194
55 75 27 3 16 258 265 160 245 240 212 194 194 195 184 167 159 157 159 158 161 158 156 155 154 162 171 165 169 168 172 170 176 190 186 177 198 268 261 244 214 223 244 251 300 333 310 281 234
223 144 161 199 218 260 313 237 252 246 199 181 178 176 172 166 165 162 162 163 169 171 168 164 164 170 179 184 188 183 176 176 191 195 184 184 200 220 228 226 214 213 234 269 230 308 305 324 289
235 209 169 143 134 145 270 283 311 42 132 168 166 162 167 169 168 165 163 164 166 170 172 170 168 170 184 188 181 183 184 183 194 197 187 197 215 209 206 214 202 217 234 254 218 254 280 307 297
162 168 84 104 142 226 272 255 228 196 188 185 162 176 166 157 150 148 152 160 165 174 165 162 164 172 181 188 189 185 195 197 194 179 191 208 221 228 198 182 198 231 259 274 242 275 285 320 318
346 50 97 116 151 157 220 263 220 196 187 169 171 174 164 156 155 149 144 156 164 160 161 160 163 165 174 181 176 173 176 179 176 191 212 210 216 198 185 207 202 216 248 268 256 279 294 312 319
181 164 136 144 240 168 172 257 254 179 175 162 162 155 152 148 145 145 146 149 149 155 169 167 169 174 182 179 170 173 171 169 182 212 215 195 208 214 184 166 178 249 278 279 245 274 291 283 291
Height
1512 1512 1513 1513 1514 1518 1517 1506 1498 1496 1497 1497 1497 1498 1501 1504 1509 1517 1515 1514 1515 1515 1515 1516 1516 1516 1517 1517 1517 1518 1519 1520 1521 1522 1523 1524 1525 1526 1527 1528 1529 1530 1531 1532 1533 1533 1534 1535 1536
1513 1513 1514 1514 1518 1527 1518 1503 1499 1497 1498 1497 1499 1501 1503 1507 1508 1511 1512 1515 1516 1516 1516 1517 1517 1517 1518 1518 1519 1519 1520 1521 1522 1523 1523 1524 1525 1526 1527 1528 1529 1530 1531 1532 1532 1533 1534 1535 1536
1513 1514 1516 1516 1520 1523 1514 1501 1498 1498 1498 1497 1500 1503 1506 1509 1510 1512 1513 1515 1516 1517 1517 1518 1518 1518 1519 1519 1520 1520 1521 1522 1522 1523 1524 1524 1525 1526 1527 1528 1529 1530 1531 1532 1532 1533 1534 1535 1535
1514 1516 1517 1519 1518 1509 1503 1499 1497 1499 1500 1500 1501 1506 1509 1511 1511 1513 1514 1516 1517 1517 1518 1519 1519 1519 1520 1520 1521 1521 1522 1523 1523 1524 1524 1525 1525 1526 1527 1528 1529 1530 1531 1532 1533 1533 1534 1535 1535
1514 1515 1519 1521 1514 1504 1498 1497 1497 1499 1501 1503 1503 1508 1511 1513 1513 1514 1515 1517 1518 1518 1519 1520 1520 1521 1521 1521 1522 1522 1523 1523 1524 1524 1525 1525 1526 1527 1528 1528 1529 1530 1531 1532 1532 1533 1534 1535 1535
1515 1516 1524 1525 1513 1503 1499 1498 1499 1501 1504 1505 1506 1509 1513 1515 1514 1516 1517 1518 1519 1519 1520 1521 1521 1522 1522 1522 1523 1523 1523 1524 1524 1525 1526 1526 1527 1527 1528 1529 1530 1530 1531 1532 1532 1533 1534 1535 1535
1516 1518 1522 1518 1513 1507 1501 1499 1499 1501 1504 1506 1507 1510 1514 1516 1516 1517 1518 1519 1520 1521 1521 1521 1522 1523 1523 1524 1524 1524 1524 1525 1525 1526 1526 1527 1527 1528 1528 1529 1530 1531 1531 1532 1532 1533 1533 1534 1535
1514 1517 1519 1516 1513 1509 1501 1500 1501 1501 1505 1507 1507 1510 1513 1516 1517 1518 1519 1520 1521 1522 1522 1522 1523 1524 1524 1524 1525 1525 1525 1526 1526 1527 1527 1527 1528 1528 1529 1530 1530 1531 1531 1532 1532 1533 1533 1533 1534
1513 1520 1522 1514 1510 1506 1501 1501 1503 1504 1506 1508 1508 1509 1512 1515 1517 1519 1520 1521 1522 1522 1523 1523 1524 1524 1525 1525 1526 1526 1526 1527 1527 1527 1528 1528 1528 1529 1529 1530 1530 1531 1531 1532 1532 1532 1532 1533 1533
1511 1519 1512 1502 1500 1501 1501 1501 1503 1506 1507 1509 1510 1511 1513 1515 1516 1518 1519 1520 1521 1522 1523 1524 1524 1525 1525 1526 1526 1526 1527 1527 1528 1528 1528 1529 1529 1529 1529 1530 1530 1531 1531 1531 1531 1532 1532 1532 1532
1505 1507 1501 1498 1497 1498 1500 1501 1502 1505 1509 1509 1509 1511 1513 1515 1516 1518 1518 1519 1520 1522 1523 1524 1524 1525 1525 1526 1526 1527 1527 1528 1528 1529 1529 1529 1529 1529 1530 1530 1530 1530 1530 1531 1531 1531 1531 1531 1531
1501 1498 1497 1497 1495 1496 1499 1501 1503 1504 1507 1508 1509 1510 1513 1515 1516 1517 1518 1519 1520 1522 1523 1524 1524 1525 1525 1526 1527 1527 1528 1528 1529 1529 1529 1529 1529 1529 1529 1529 1530 1530 1530 1530 1530 1530 1530 1530 1529
1499 1497 1495 1495 1495 1495 1498 1500 1503 1505 1506 1509 1511 1512 1513 1515 1516 1517 1518 1519 1520 1522 1523 1524 1524 1525 1525 1526 1527 1527 1528 1528 1529 1529 1529 1529 1529 1529 1529 1529 1529 1529 1529 1529 1529 1529 1529 1528 1528
1498 1496 1495 1495 1496 1496 1498 1501 1503 1507 1507 1509 1511 1512 1513 1514 1516 1517 1518 1519 1520 1521 1523 1524 1524 1525 1525 1526 1526 1527 1527 1528 1528 1529 1529 1529 1529 1529 1529 1529 1529 1529 1529 1528 1528 1528 1528 1527 1527
1498 1499 1498 1496 1496 1498 1499 1507 1505 1506 1508 1509 1511 1512 1513 1514 1515 1516 1517 1519 1520 1521 1522 1524 1524 1525 1525 1526 1526 1527 1527 1528 1528 1528 1529 1529 1529 1529 1529 1528 1528 1528 1528 1528 1527 1527 1527 1526 1525
1500 1505 1510 1499 1497 1498 1503 1517 1506 1506 1507 1509 1511 1512 1513 1515 1515 1516 1518 1519 1520 1521 1522 1523 1524 1525 1525 1526 1526 1527 1528 1528 1528 1528 1528 1528 1529 1528 1528 1528 1527 1527 1527 1527 1526 1526 1525 1525 1524
1510 1517 1514 1504 1496 1497 1502 1512 1507 1507 1506 1508 1510 1512 1512 1514 1515 1516 1517 1518 1519 1520 1522 1523 1524 1524 1525 1526 1526 1527 1527 1528 1528 1528 1528 1528 1528 1528 1527 1527 1527 1526 1526 1526 1525 1525 1524 1524 1523
1519 1516 1512 1508 1498 1498 1503 1507 1506 1506 1506 1507 1509 1510 1511 1513 1514 1516 1517 1518 1519 1520 1521 1522 1523 1524 1525 1525 1526 1527 1527 1527 1528 1527 1527 1528 1527 1527 1527 1526 1526 1525 1525 1524 1524 1524 1523 1523 1522
1503 1508 1510 1503 1494 1499 1504 1507 1507 1506 1506 1508 1509 1509 1510 1512 1514 1515 1517 1518 1518 1520 1520 1521 1522 1523 1524 1524 1525 1526 1526 1527 1527 1527 1527 1527 1527 1526 1526 1525 1525 1524 1524 1523 1523 1522 1522 1522 1521
1500 1507 1507 1501 1494 1499 1507 1509 1505 1505 1506 1506 1508 1509 1510 1511 1513 1515 1516 1517 1518 1519 1520 1521 1522 1522 1523 1524 1525 1525 1526 1526 1526 1526 1526 1526 1526 1525 1525 1524 1524 1523 1523 1522 1522 1522 1521 1520 1520
1500 1504 1503 1503 1499 1500 1508 1516 1511 1506 1506 1507 1508 1508 1509 1509 1511 1513 1514 1516 1517 1518 1519 1520 1521 1522 1523 1524 1524 1525 1525 1525 1525 1525 1525 1525 1525 1524 1524 1523 1523 1522 1522 1521 1521 1521 1520 1519 1519
1503 1490 1491 1496 1509 1518 1514 1534 1518 1508 1507 1507 1507 1507 1508 1508 1509 1511 1513 1514 1516 1517 1519 1520 1521 1522 1522 1523 1523 1523 1523 1523 1524 1524 1524 1524 1524 1523 1523 1522 1522 1522 1521 1520 1520 1519 1518 1518 1517
1492 1484 1489 1495 1508 1520 1518 1529 1525 1511 1511 1507 1506 1505 1506 1507 1508 1509 1511 1513 1515 1516 1518 1519 1520 1521 1522 1522 1523 1523 1523 1523 1523 1523 1523 1523 1523 1522 1522 1522 1521 1520 1520 1519 1518 1517 1517 1516 1515
1483 1489 1494 1503 1515 1534 1525 1528 1529 1515 1508 1504 1503 1503 1504 1505 1506 1508 1510 1512 1513 1515 1517 1518 1520 1520 1521 1521 1522 1522 1522 1522 1522 1521 1521 1521 1521 1521 1521 1520 1520 1519 1518 1517 1516 1516 1515 1514 1513
1486 1507 1527 1533 1541 1539 1521 1524 1521 1501 1496 1497 1499 1500 1501 1503 1504 1507 1509 1510 1512 1514 1515 1517 1518 1519 1520 1520 1521 1520 1521 1521 1520 1520 1520 1520 1520 1519 1519 1519 1518 1517 1516 1516 1515 1514 1513 1512 1511
1488 1501 1527 1541 1546 1538 1524 1525 1511 1494 1492 1494 1496 1498 1499 1501 1502 1504 1506 1508 1510 1512 1513 1515 1516 1517 1518 1519 1519 1519 1519 1519 1519 1519 1519 1518 1518 1518 1517 1517 1516 1515 1515 1514 1513 1512 1512 1510 1510
1487 1495 1498 1519 1529 1538 1532 1519 1505 1495 1494 1495 1496 1498 1498 1499 1500 1502 1505 1506 1508 1510 1511 1513 1514 1515 1517 1517 1518 1518 1518 1518 1518 1518 1517 1517 1517 1516 1516 1515 1514 1514 1513 1512 1511 1510 1510 1509 1508
1479 1486 1503 1518 1535 1543 1533 1525 1518 1503 1499 1496 1498 1498 1497 1498 1499 1502 1504 1505 1507 1509 1510 1512 1513 1514 1515 1516 1516 1516 1516 1516 1516 1516 1515 1515 1515 1514 1514 1513 1512 1512 1511 1511 1510 1509 1508 1507 1506
1486 1490 1500 1514 1520 1537 1542 1528 1495 1494 1492 1494 1495 1496 1496 1497 1499 1501 1503 1505 1507 1509 1510 1511 1512 1513 1514 1515 1515 1514 1514 1514 1514 1514 1513 1513 1513 1512 1512 1511 1511 1510 1509 1508 1508 1507 1506 1505 1504
1479 1486 1497 1514 1519 1522 1530 1521 1486 1487 1488 1490 1492 1493 1495 1497 1498 1500 1502 1504 1506 1508 1508 1509 1510 1511 1511 1512 1513 1513 1513 1512 1512 1512 1511 1511 1510 1510 1509 1509 1509 1508 1507 1506 1505 1504 1503 1502 1501